{"data":{"norad_id":82073,"intl_designator":"","name":"UNKNOWN","alt_names":[],"object_type":"UNKNOWN","status":"UNKNOWN","operator":null,"country":null,"launch_date":null,"launch_site_code":null,"launch_vehicle":null,"mission":null,"orbit_class":"UNKNOWN","rcs_meters":null,"size_class":null,"mass_kg":null,"dimensions":null,"purposes":[],"wikipedia_slug":null,"has_3d_model":false,"image_url":null,"decayed_at":null,"tle_current":{"epoch":"2026-05-23T22:20:26.034432Z","epoch_age_seconds":170597,"freshness":"FRESH","line1":"1 82073U          26143.93085688  .00002179  00000+0  55188-3 0  9991","line2":"2 82073  97.7320 209.5523 0206162 151.8254 209.4276 14.39766015598452","mean_motion":14.39766015,"eccentricity":0.0206162,"inclination_deg":97.732,"raan_deg":209.5523,"arg_perigee_deg":151.8254,"mean_anomaly_deg":209.4276,"bstar":0.00055188,"rev_number":59845,"period_min":100.01625159905,"perigee_km":612.12540220943,"apogee_km":906.41789047895,"semimajor_km":7137.4086463442,"source":"CELESTRAK","updated_at":"2026-05-25T13:38:11.091034Z"}}}